Overview Statistics Trail Chart Weather Telemetry Raw packets
 

This is the latest recevied weather packets stored in our database for station/object K6CEG. If no packets are shown the sender has not sent any weather packets the latest 10 day(s).

<< 94 95 96 97 98 99 100 >>
Time Temp. Humidity Pressure Rain* Wind** Luminosity Snow
1787974908 30° C 51% 1012.6 hPa 0 mm - 0 W/m² -
1787974607 30° C 50% 1012.3 hPa 0 mm - 0 W/m² -
1787974302 30.56° C 50% 1012.3 hPa 0 mm - 0 W/m² -
1787974001 30.56° C 49% 1012.4 hPa 0 mm - 0 W/m² -
1787973697 31.67° C 47% 1012.3 hPa 0 mm - 0 W/m² -
1787973391 32.78° C 44% 1012.4 hPa 0 mm - 0 W/m² -
1787973091 33.33° C 32% 1012.1 hPa 0 mm - 0 W/m² -
1787972786 33.33° C 31% 1012.1 hPa 0 mm - 0 W/m² -
1787972481 33.89° C 31% 1012.2 hPa 0 mm - 0 W/m² -
1787972180 33.89° C 31% 1012.2 hPa 0 mm - 0 W/m² -
1787971875 33.89° C 31% 1012 hPa 0 mm - 0 W/m² -
1787971570 34.44° C 30% 1012.2 hPa 0 mm - 0 W/m² -
1787971266 34.44° C 30% 1012.2 hPa 0 mm - 0 W/m² -
1787970961 34.44° C 30% 1012 hPa 0 mm - 0 W/m² -
1787970661 35° C 30% 1012.3 hPa 0 mm - 0 W/m² -
1787970360 35° C 29% 1011.9 hPa 0 mm - 0 W/m² -
1787970059 35° C 29% 1011.9 hPa 0 mm - 0 W/m² -
1787969758 35° C 28% 1011.9 hPa 0 mm - 3 W/m² -
1787969458 35.56° C 29% 1011.7 hPa 0 mm - 5 W/m² -
1787969158 35.56° C 28% 1011.8 hPa 0 mm - 8 W/m² -
1787968853 36.11° C 28% 1012 hPa 0 mm - 11 W/m² -
1787968552 36.11° C 27% 1012.1 hPa 0 mm - 16 W/m² -
1787968247 36.67° C 27% 1011.9 hPa 0 mm - 18 W/m² -
1787967943 36.67° C 28% 1012.1 hPa 0 mm - 23 W/m² -
1787967639 36.67° C 32% 1012.1 hPa 0 mm - 28 W/m² -

* Rain latest hour (hover to see other rain measurements)
** Current wind speed in m/s (hover to see current wind gust speed)